Regional Weather Roundup
Issued by NWS Burlington, VT

Current Version | Previous Version | Text Only | Print | Product List | Glossary Off
Versions: 1 2 3 4 5 6 7 8 9 10 11 12 13 14 15 16 17 18 19 20 21 22 23 24 25 26 27 28 29 30 31 32 33 34 35 36 37 38 39 40 41 42 43 44 45 46 47 48 49 50

377
ASUS41 KBTV 250130
RWRBTV
VERMONT REGIONAL WEATHER ROUNDUP
NATIONAL WEATHER SERVICE BURLINGTON VT
900 PM EDT TUE MAY 24 2016

NOTE: "FAIR" INDICATES FEW OR NO CLOUDS BELOW 12,000 FEET WITH NO
SIGNIFICANT WEATHER AND/OR OBSTRUCTIONS TO VISIBILITY.

* THESE REPORTS ARE NOT UNDER NWS QUALITY CONTROL AND/OR DO NOT
  REPORT WEATHER SUCH AS PRECIPITATION AND FOG.

VTZ001>019-250200-
_____VERMONT_____


CITY           SKY/WX    TMP DP  RH WIND       PRES   REMARKS
BURLINGTON     FAIR      67  53  61 S9        29.90R
MONTPELIER     FAIR      59  56  89 E6        29.99R
MORRISVILLE    FAIR      62  54  74 S6        29.94R
ST. JOHNSBURY*   N/A     60  57  89 MISG      29.92R
LYNDONVILLE*   CLOUDY    58  57  97 CALM      29.96S
MIDDLEBURY*    FAIR      62  55  78 S5        29.94S
RUTLAND*       LGT RAIN  59  58  96 S3        29.96R
SPRINGFIELD    FAIR      60  57  89 CALM      29.96R
HIGHGATE*      FAIR      66  55  66 S9        29.88R
NEWPORT*       CLOUDY    61  56  83 S6        29.93S
BENNINGTON     MOCLDY    58  56  93 CALM      29.96R
SUTTON*          N/A     57 N/A N/A MISG        N/A
GALLUP MILLS*    N/A     55 N/A N/A MISG        N/A
UNION VILLAGE*   N/A     57 N/A N/A MISG        N/A
MT. MANSFIELD*   N/A     57 N/A N/A NW12        N/A

_____LAKE CHAMPLAIN_____


CITY           SKY/WX    TMP DP  RH WIND       PRES   REMARKS
COLCHESTER RF*   N/A     66  55  68 S23         N/A
DIAMOND ISL*     N/A     66  55  68 S8          N/A

$$

NYZ007-026>031-035-052-083-087-250200-
_____NORTHERN NEW YORK_____


CITY           SKY/WX    TMP DP  RH WIND       PRES   REMARKS
PLATTSBURGH    CLEAR     61  52  72 S6        29.87R
SARANAC LAKE   CLEAR     67  37  33 VRB5      29.93R
MASSENA        CLEAR     71  45  39 SW9       29.88R
OGDENSBURG*    CLEAR     66  43  42 SW5       29.89S
POTSDAM*       CLEAR     66  50  55 SW6       29.91R
STARK FALLS*     N/A     32 N/A N/A W7          N/A  WCI  26
WATERTOWN      CLEAR     61  39  44 S5        29.92S
FT DRUM        CLEAR     65  35  33 SW9       29.92S
ALBANY         CLOUDY    61  55  81 E5        29.96R
GLENS FALLS    CLOUDY    62  56  80 SE3       29.95R

$$
NHZ002-005-011-250200-
_____NEW HAMPSHIRE_____


CITY           SKY/WX    TMP DP  RH WIND       PRES   REMARKS
LEBANON        MOCLDY    58  56  93 CALM      29.95R
KEENE          PTCLDY    55  54  94 CALM      29.98
MT WASHINGTON  MOCLDY    46  27  46 NE6         N/A
PLYMOUTH       CLOUDY    61  59  91 CALM      29.96R
WHITEFIELD     MOCLDY    57  53  86 CALM      29.95R

$$

_____REGIONAL QUEBEC LOCATIONS_____


CITY           SKY/WX    TMP DP  RH WIND       PRES   REMARKS
MONTREAL       PTCLDY    72  39  30 SW5       29.83R
QUEBEC CITY    MOCLDY    70  48  46 N5        29.82R
SHERBROOKE     MOCLDY    66  55  68 SE10      29.90R

_____REGIONAL ONTARIO LOCATIONS_____


CITY           SKY/WX    TMP DP  RH WIND       PRES   REMARKS
OTTAWA         PTCLDY    72  45  37 S7        29.86S

______KEY______
VSB  - VISIBILITY IN MILES
WCI  - WIND CHILL INDEX
HX   - HEAT INDEX
$$
NNNN




USA.gov is the U.S. government's official web portal to all federal, state and local government web resources and services.